sat.trackr.live / text

‹ back to catalog

ICEYE-X51

NORAD 63257 · 2025-052AZ

PAYLOAD ACTIVE UNKNOWN

§ Identity

Operator
Country
US
Launch date
2025-03-15
Launch site
AFWTR
Launch vehicle
Mass (kg)
RCS (m²)

External: N2YO · Heavens-Above · Gunter

§ Orbital elements

Epoch: 2026-05-25T04:34:05.743200Z

Period
95.94 min
Inclination
97.7509°
Eccentricity
0.0002031
Mean motion
15.00924770 rev/d
Perigee alt
562.6 km
Apogee alt
565.5 km
Semi-major
6,942.2 km
B*
3.0773e-4
RAAN
40.3410°
Arg perigee
58.6650°
Mean anomaly
301.4772°
Rev number
6,535

§ Raw data

ICEYE-X511 63257U 25052AZ  26145.19034425  .00003860  00000+0  30773-3 0  99922 63257  97.7509  40.3410 0002031  58.6650 301.4772 15.00924770 65358

JSON: /api/v1/satellites/63257 · /tle

For live sub-satellite position, see the globe view (requires WebGL).

§ Visibility from observer

Set your observer location to see the next 7 days of passes ≥ 10°. The values pass through the URL so the page stays shareable.

No JS? Fill the form by hand. The geolocation button needs JavaScript.

§ Radio — SatNOGS DB

ModeDescriptionDownlinkUplink
FM S-band telemetry 2.270 GHz

1 transmitter · refreshed weekly from db.satnogs.org